Location: Fort Wayne
(41.1310°N, 85.1290°W)
Time: 22:01:25
(UTC-04:00)

Tiros 1 despin weight - Visible Passes

Search period start: 24 September 2016 00:00
Search period end: 04 October 2016 00:00
Orbit: 596 x 644 km, 48.2° (Epoch: 23 September)

Date Brightness Start Highest point End Pass type
(mag) Time Alt. Az. Time Alt. Az. Time Alt. Az.
24 Sep ? 04:16:19 20° NE 04:16:19 20° NE 04:17:45 10° ENE visible
24 Sep ? 05:53:25 23° NW 05:55:27 33° N 05:59:37 10° ENE visible
25 Sep ? 04:32:49 25° NE 04:32:49 25° NE 04:34:59 10° ENE visible
25 Sep ? 06:09:55 16° NW 06:13:00 34° N 06:17:11 10° ENE visible
26 Sep ? 04:49:20 30° NNE 04:49:20 30° NNE 04:52:19 10° ENE visible
26 Sep ? 06:26:26 11° NW 06:30:29 40° NNE 06:34:49 10° E visible
27 Sep ? 05:05:53 33° N 05:05:53 33° N 05:09:48 10° ENE visible
27 Sep ? 06:43:26 10° WNW 06:47:55 54° NNE 06:52:24 10° E visible
28 Sep ? 05:22:29 34° NNW 05:23:11 36° N 05:27:25 10° ENE visible
28 Sep ? 07:00:39 10° WNW 07:05:12 84° NNE 07:09:49 10° ESE visible
29 Sep ? 04:02:03 12° ENE 04:02:03 12° ENE 04:02:28 10° ENE visible
29 Sep ? 05:39:09 33° NNW 05:40:39 45° NNE 05:45:03 10° E visible
30 Sep ? 04:18:48 17° ENE 04:18:48 17° ENE 04:20:01 10° ENE visible
30 Sep ? 05:55:55 30° NW 05:58:01 66° NNE 06:02:33 10° ESE visible
01 Oct ? 04:35:39 23° ENE 04:35:39 23° ENE 04:37:38 10° E visible
01 Oct ? 06:12:47 26° WNW 06:15:15 77° SSW 06:19:49 10° SE visible
02 Oct ? 04:52:38 31° E 04:52:38 31° E 04:55:14 10° E visible
02 Oct ? 06:29:47 21° W 06:32:21 42° SW 06:36:40 10° SSE visible
03 Oct ? 05:09:46 38° ESE 05:09:46 38° ESE 05:12:38 10° ESE visible
03 Oct ? 06:46:55 15° W 06:49:20 22° SW 06:52:52 10° S visible
